This is the latest recevied weather packets stored in our database for station/object KB1JL-13. If no packets are shown the sender has not sent any weather packets the latest 10 day(s).
| Time | Temp. | Humidity | Pressure | Rain* | Wind** | Luminosity | Snow |
|---|---|---|---|---|---|---|---|
| 1777988727 | 17.22° C | 78% | 1022.2 hPa | 0 mm | - | 707 W/m² | - |
| 1777988425 | 16.67° C | 80% | 1022.6 hPa | 0 mm | - | 582 W/m² | - |
| 1777988122 | 16.67° C | 81% | 1022.2 hPa | 0 mm | - | 342 W/m² | - |
| 1777987818 | 15.56° C | 84% | 1022.2 hPa | 0 mm | - | 633 W/m² | - |
| 1777987515 | 15.56° C | 84% | 1022.2 hPa | 0 mm | - | 487 W/m² | - |
| 1777987212 | 15° C | 86% | 1022.6 hPa | 0 mm | - | 278 W/m² | - |
| 1777986908 | 15° C | 86% | 1022.2 hPa | 0 mm | - | 148 W/m² | - |
| 1777986607 | 15° C | 86% | 1022.6 hPa | 0 mm | - | 211 W/m² | - |
| 1777986304 | 15° C | 87% | 1022.2 hPa | 0 mm | - | 273 W/m² | - |
| 1777986003 | 14.44° C | 88% | 1022.6 hPa | 0 mm | - | 183 W/m² | - |
| 1777985699 | 14.44° C | 89% | 1022.6 hPa | 0 mm | - | 118 W/m² | - |
| 1777985395 | 14.44° C | 88% | 1022.6 hPa | 0 mm | - | 131 W/m² | - |
| 1777985092 | 14.44° C | 88% | 1023 hPa | 0 mm | - | 126 W/m² | - |
| 1777984788 | 14.44° C | 88% | 1022.6 hPa | 0 mm | - | 138 W/m² | - |
| 1777984485 | 14.44° C | 88% | 1023 hPa | 0 mm | - | 157 W/m² | - |
| 1777984181 | 13.89° C | 89% | 1022.6 hPa | 0 mm | - | 146 W/m² | - |
| 1777983878 | 13.89° C | 90% | 1023 hPa | 0 mm | - | 137 W/m² | - |
| 1777983575 | 13.33° C | 91% | 1023 hPa | 0 mm | - | 133 W/m² | - |
| 1777983272 | 13.33° C | 91% | 1023 hPa | 0 mm | - | 104 W/m² | - |
| 1777982968 | 13.33° C | 91% | 1023 hPa | 0 mm | - | 106 W/m² | - |
| 1777982665 | 13.33° C | 90% | 1023 hPa | 0 mm | - | 126 W/m² | - |
| 1777982363 | 13.33° C | 91% | 1023 hPa | 0 mm | - | 259 W/m² | - |
| 1777982060 | 12.78° C | 92% | 1023 hPa | 0 mm | - | 219 W/m² | - |
| 1777981758 | 12.78° C | 93% | 1023 hPa | 0 mm | - | 173 W/m² | - |
| 1777981454 | 12.22° C | 94% | 1023.4 hPa | 0 mm | - | 114 W/m² | - |
* Rain latest hour (hover to see other rain measurements)
** Current wind speed in m/s (hover to see current wind gust speed)